#timestamp,LO_Frequency,Hit,StdDev 
1626480015.8,286047019.5,N
1626480035.6,286047019.5,N
1626480055.4,286047021.4,N
1626480075.3,286047019.5,N
1626480095.1,286047019.6,N
1626480115.8,286047016.6,N
1626480135.7,286047015.8,N
1626480155.5,286047018.2,N
1626480175.4,286047017.3,Y
1626480195.2,286047002.4,P
1626480215.0,286046997.9,N
1626480215.9,286046997.9,N
1626480235.8,286046997.2,N
1626480255.6,286046992.2,N
1626480275.4,286046991.3,N
1626480295.3,286046990.3,N
1626480315.1,286046985.6,N
1626480335.9,286046980.6,N
1626480355.7,286046986.8,N
1626480375.5,286046989.7,N
1626480395.4,286046990.1,N
1626480415.2,286046998.7,N
1626480435.0,286047004.4,N
1626480435.9,286047004.4,N
1626480455.8,286047003.9,N
1626480475.6,286046999.9,N
1626480495.5,286047002.4,N
1626480515.3,286047004.4,N
1626480535.1,286047003.3,N
1626480555.9,286047006.5,N
1626480575.7,286047009.3,N
1626480595.6,286047010.4,N
1626480615.4,286047009.2,N
1626480635.2,286047001.3,N
1626480655.1,286046996.9,N
1626480656.0,286046996.9,N
1626480675.8,286046993.8,N
1626480695.6,286046992.8,N
1626480715.5,286046993.0,N
1626480735.3,286046990.1,N
1626480755.2,286046992.1,N
1626480775.9,286046994.1,N
1626480795.7,286046993.3,N
1626480815.6,286046998.0,N
1626480835.4,286046998.6,N
1626480855.2,286047005.3,N
1626480875.1,286047008.6,N
1626480876.0,286047008.6,N
1626480895.8,286047010.7,N
1626480915.7,286047010.2,N
1626480935.5,286047012.0,N
1626480955.3,286047015.1,N
1626480975.2,286047018.4,N
1626480995.0,286047017.3,N
1626480995.9,286047017.3,N
1626481015.8,286047017.7,N
1626481035.6,286047016.3,N
1626481055.4,286047018.3,N
1626481075.3,286047017.1,N
1626481095.1,286047012.8,N
1626481115.8,286047013.3,N
1626481135.7,286047011.0,N
1626481155.5,286047012.3,N
1626481175.4,286047008.1,N
1626481195.2,286047010.6,N
1626481215.0,286047009.5,N
1626481215.9,286047009.5,N
1626481235.8,286047009.0,N
1626481255.6,286047006.4,N
1626481275.4,286047008.1,N
1626481295.3,286047010.3,N
1626481315.1,286047010.5,N
1626481335.9,286047013.7,N
1626481355.7,286047009.7,N
1626481375.5,286047015.0,Y
1626481395.4,286047007.5,P
1626481415.2,286047010.7,P
1626481435.0,286047006.7,P
1626481436.0,286047006.7,Y
1626481455.8,286046995.7,P
1626481475.6,286046995.2,N
1626481495.5,286046995.2,N
1626481515.3,286046996.4,N
1626481535.1,286046996.2,N
1626481555.9,286046995.9,N
1626481575.7,286046996.0,N
1626481595.6,286046995.2,N
1626481615.4,286046993.6,N
1626481635.2,286046994.7,N
1626481655.1,286046993.4,N
1626481656.0,286046993.4,N
1626481675.8,286046995.8,N
1626481695.7,286046999.9,N
1626481715.5,286047004.4,N
1626481735.3,286047000.8,N
1626481755.2,286046997.5,N
1626481775.0,286046993.8,N
1626481775.9,286046993.8,N
1626481795.8,286046992.6,N
1626481815.6,286046987.2,Y
1626481835.4,286046988.3,P
1626481855.3,286046989.8,N
1626481875.1,286046985.8,P
1626481895.8,286046987.5,Y
1626481915.7,286047004.4,P
1626481935.5,286047003.1,N
1626481955.4,286047003.9,N
1626481975.2,286047004.3,N
1626481995.0,286047004.9,N
1626481995.9,286047004.9,N
1626482015.8,286047006.6,N
1626482035.6,286047008.6,N
1626482055.5,286047007.2,N
1626482075.3,286047005.9,N
1626482095.1,286047007.3,N
1626482115.9,286047006.6,N
1626482135.7,286047009.1,N
1626482155.6,286047007.0,N
1626482175.4,286047006.2,N
1626482195.2,286047009.9,N
1626482215.1,286047010.5,N
1626482216.0,286047010.5,N
1626482235.8,286047006.2,N
1626482255.6,286047008.3,N
1626482275.5,286047010.2,N
1626482295.3,286047010.4,N
1626482315.1,286047008.0,N
1626482335.9,286047007.9,N
1626482355.7,286047009.2,N
1626482375.6,286047009.5,N
1626482395.4,286047015.6,Y
1626482415.2,286047012.0,P
1626482435.1,286047011.9,P
1626482436.0,286047011.9,P
1626482455.8,286047012.0,Y
1626482475.7,286046998.4,P
1626482495.5,286047002.7,N
1626482515.3,286047000.3,N
1626482535.2,286046999.4,N
1626482555.9,286046997.5,N
1626482575.7,286047000.5,N
1626482595.6,286047002.5,N
1626482615.4,286047000.2,N
1626482635.2,286047001.4,N
1626482655.1,286047004.3,N
1626482656.0,286047004.3,N
1626482675.8,286047000.4,N
1626482695.7,286046998.9,N
1626482715.5,286046996.8,N
1626482735.3,286046996.7,N
1626482755.2,286046998.1,N
1626482775.0,286047001.9,N
1626482775.9,286047001.9,N
1626482795.7,286047003.7,N
1626482815.6,286047005.9,N
1626482835.4,286047005.5,N
1626482855.3,286047003.5,N
1626482875.1,286047004.0,N
1626482906.0,286047003.9,E
1626482915.1,286047001.5,N
1626482916.0,286047001.5,P
1626482935.8,286047000.5,P
1626482955.6,286046997.2,Y
1626482975.5,286046989.9,P
1626482995.3,286046980.5,P
1626483015.1,286046980.3,N
1626483035.9,286046975.6,N
1626483055.7,286046974.4,N
1626483075.6,286046974.5,N
1626483095.4,286046978.4,N
1626483115.2,286046977.7,N
1626483135.1,286046981.3,N
1626483136.0,286046981.3,N
1626483155.8,286046982.2,N
1626483175.6,286046981.2,N
1626483195.5,286046976.4,Y
1626483215.3,286046996.3,P
1626483235.2,286046995.2,N
1626483255.9,286046995.2,N
1626483275.7,286046998.7,N
1626483295.6,286047000.1,N
1626483315.4,286046998.5,N
1626483335.2,286046997.3,N
1626483355.1,286046991.8,N
1626483356.0,286046991.8,N
1626483375.8,286046993.4,N
1626483395.7,286046999.2,N
1626483415.5,286046999.3,N
1626483435.3,286047000.5,N
1626483455.2,286047005.2,N
1626483475.0,286047008.7,N
1626483475.9,286047008.7,N
1626483495.7,286047007.8,N
1626483515.6,286047010.2,N
1626483535.4,286047011.4,N
1626483555.3,286047009.6,N
1626483575.1,286047012.4,N
1626483576.0,286047012.4,N
1626483595.8,286047012.4,N
